When you browse on this site, cookies collect data to enhance your experience and personalize the content and advertising you see.
Visit our Privacy Policy to learn more. By continuing to use the site, you agree to this use of cookies and data.
  • In Romania
  • List of Countries
  • For 7 days
  • Water Temperature
  • Satellite Maps
  • Weather Map
  • Weather Widgets
  • user-avatar
    Login

    Hourly Weather Morsko

    Today, 19 May, Sunday

    Time Temperature Precipitation Wind Pressure Humidity
    00:00 +14°C° 0 mm 2 mps 737 mmHg 92%
    01:00 +13°C° 0 mm 1 mps 736 mmHg 92%
    02:00 +13°C° 0 mm 1 mps 736 mmHg 92%
    03:00 +12°C° 0 mm 1 mps 736 mmHg 92%
    04:00 +12°C° 0 mm 1 mps 736 mmHg 93%
    05:00 +14°C° 0 mm 1 mps 736 mmHg 89%
    06:00 +15°C° 0 mm 1 mps 736 mmHg 85%
    07:00 +18°C° 0 mm 1 mps 736 mmHg 82%
    08:00 +18°C° 0 mm 2 mps 736 mmHg 77%
    09:00 +20°C° 0 mm 2 mps 736 mmHg 72%
    10:00 +23°C° 0 mm 2 mps 736 mmHg 67%
    11:00 +24°C° 0.1 mm 3 mps 736 mmHg 64%
    12:00 +23°C° 0.1 mm 4 mps 735 mmHg 62%
    13:00 +23°C° 0 mm 5 mps 736 mmHg 61%
    14:00 +23°C° 0.4 mm 5 mps 736 mmHg 64%
    15:00 +23°C° 0.4 mm 5 mps 735 mmHg 66%
    16:00 +23°C° 0.4 mm 6 mps 735 mmHg 69%
    17:00 +21°C° 0 mm 5 mps 735 mmHg 74%
    18:00 +20°C° 0 mm 5 mps 735 mmHg 78%
    19:00 +18°C° 0 mm 4 mps 735 mmHg 83%
    20:00 +17°C° 0 mm 4 mps 735 mmHg 86%
    21:00 +16°C° 0 mm 3 mps 735 mmHg 89%
    22:00 +14°C° 0 mm 3 mps 735 mmHg 91%
    23:00 +14°C° 0 mm 3 mps 735 mmHg 91%

    Tomorrow, 20 May, Monday

    Time Temperature Precipitation Wind Pressure Humidity
    00:00 +14°C° 0 mm 2 mps 734 mmHg 91%
    01:00 +14°C° 0 mm 2 mps 734 mmHg 91%
    02:00 +14°C° 0 mm 2 mps 734 mmHg 92%
    03:00 +14°C° 0 mm 2 mps 734 mmHg 92%
    04:00 +13°C° 0 mm 2 mps 733 mmHg 93%
    05:00 +14°C° 0 mm 3 mps 733 mmHg 88%
    06:00 +17°C° 0 mm 4 mps 733 mmHg 83%
    07:00 +18°C° 0 mm 4 mps 733 mmHg 79%
    08:00 +20°C° 0 mm 5 mps 733 mmHg 73%
    09:00 +22°C° 0 mm 6 mps 733 mmHg 67%
    10:00 +24°C° 0 mm 6 mps 734 mmHg 62%
    11:00 +24°C° 0 mm 6 mps 734 mmHg 60%
    12:00 +26°C° 0 mm 6 mps 734 mmHg 58%
    13:00 +26°C° 0 mm 6 mps 734 mmHg 56%
    14:00 +24°C° 0.1 mm 6 mps 734 mmHg 59%
    15:00 +25°C° 0.1 mm 5 mps 734 mmHg 62%
    16:00 +23°C° 0.1 mm 5 mps 734 mmHg 65%
    17:00 +22°C° 0 mm 5 mps 734 mmHg 69%
    18:00 +20°C° 0 mm 4 mps 734 mmHg 73%
    19:00 +19°C° 0 mm 4 mps 734 mmHg 77%
    20:00 +18°C° 0 mm 3 mps 734 mmHg 78%
    21:00 +16°C° 0 mm 3 mps 734 mmHg 79%
    22:00 +14°C° 0 mm 3 mps 734 mmHg 80%
    23:00 +14°C° 0 mm 3 mps 734 mmHg 82%

    Day after tomorrow, 21 May, Tuesday

    Time Temperature Precipitation Wind Pressure Humidity
    00:00 +14°C° 0 mm 2 mps 734 mmHg 84%
    01:00 +13°C° 0 mm 2 mps 734 mmHg 85%
    02:00 +13°C° 0 mm 2 mps 734 mmHg 86%
    03:00 +13°C° 0 mm 2 mps 734 mmHg 87%
    04:00 +12°C° 0 mm 1 mps 734 mmHg 88%
    05:00 +13°C° 0 mm 1 mps 734 mmHg 85%
    06:00 +15°C° 0 mm 1 mps 734 mmHg 83%
    07:00 +16°C° 0 mm 1 mps 734 mmHg 80%
    08:00 +16°C° 0.1 mm 1 mps 734 mmHg 80%
    09:00 +18°C° 0.1 mm 1 mps 734 mmHg 79%
    10:00 +18°C° 0.1 mm 2 mps 734 mmHg 78%
    11:00 +18°C° 0.9 mm 2 mps 734 mmHg 80%
    12:00 +18°C° 0.9 mm 3 mps 733 mmHg 81%
    13:00 +18°C° 0.9 mm 4 mps 733 mmHg 83%
    14:00 +18°C° 1 mm 3 mps 733 mmHg 84%
    15:00 +17°C° 1 mm 3 mps 733 mmHg 85%
    16:00 +17°C° 1 mm 2 mps 733 mmHg 85%
    17:00 +16°C° 2.1 mm 2 mps 733 mmHg 87%
    18:00 +16°C° 2.1 mm 2 mps 733 mmHg 89%
    19:00 +15°C° 2.1 mm 2 mps 733 mmHg 91%
    20:00 +14°C° 0.8 mm 3 mps 733 mmHg 91%
    21:00 +14°C° 0.8 mm 3 mps 733 mmHg 92%
    22:00 +13°C° 0.8 mm 4 mps 733 mmHg 92%
    23:00 +13°C° 0.2 mm 4 mps 733 mmHg 92%

    22 May, Wednesday

    Time Temperature Precipitation Wind Pressure Humidity
    00:00 +13°C° 0.2 mm 4 mps 733 mmHg 92%
    01:00 +13°C° 0.2 mm 3 mps 733 mmHg 92%
    02:00 +13°C° 0.3 mm 4 mps 733 mmHg 92%
    03:00 +12°C° 0.3 mm 4 mps 733 mmHg 92%
    04:00 +12°C° 0.3 mm 4 mps 734 mmHg 92%
    05:00 +12°C° 0.9 mm 4 mps 734 mmHg 93%
    06:00 +12°C° 0.9 mm 4 mps 734 mmHg 93%
    07:00 +12°C° 0.9 mm 4 mps 734 mmHg 93%
    08:00 +13°C° 0.2 mm 4 mps 734 mmHg 93%
    09:00 +14°C° 0.2 mm 4 mps 734 mmHg 92%
    10:00 +14°C° 0.2 mm 4 mps 735 mmHg 91%
    11:00 +17°C° 0.6 mm 4 mps 735 mmHg 87%
    12:00 +17°C° 0.6 mm 5 mps 735 mmHg 83%
    13:00 +20°C° 0.6 mm 5 mps 735 mmHg 78%
    14:00 +19°C° 1.2 mm 5 mps 735 mmHg 80%
    15:00 +19°C° 1.2 mm 6 mps 735 mmHg 82%
    16:00 +19°C° 1.2 mm 6 mps 735 mmHg 84%
    17:00 +17°C° 0.6 mm 5 mps 735 mmHg 87%
    18:00 +16°C° 0.6 mm 5 mps 735 mmHg 89%
    19:00 +15°C° 0.6 mm 5 mps 735 mmHg 91%
    20:00 +14°C° 0.4 mm 5 mps 735 mmHg 93%
    21:00 +14°C° 0.4 mm 4 mps 735 mmHg 94%
    22:00 +13°C° 0.4 mm 4 mps 735 mmHg 95%
    23:00 +14°C° 0.5 mm 4 mps 735 mmHg 95%

    23 May, Thursday

    Time Temperature Precipitation Wind Pressure Humidity
    00:00 +14°C° 0.5 mm 5 mps 735 mmHg 95%
    01:00 +14°C° 0.5 mm 5 mps 735 mmHg 95%
    02:00 +14°C° 0.4 mm 5 mps 735 mmHg 95%
    03:00 +14°C° 0.4 mm 5 mps 735 mmHg 95%
    04:00 +14°C° 0.4 mm 5 mps 736 mmHg 95%
    05:00 +14°C° 0.5 mm 5 mps 736 mmHg 93%
    06:00 +15°C° 0.5 mm 5 mps 736 mmHg 92%
    07:00 +15°C° 0.5 mm 6 mps 737 mmHg 91%
    08:00 +14°C° 0.9 mm 6 mps 737 mmHg 91%
    09:00 +14°C° 0.9 mm 7 mps 738 mmHg 91%
    10:00 +12°C° 0.9 mm 8 mps 738 mmHg 92%
    11:00 +11°C° 0.4 mm 8 mps 738 mmHg 91%
    12:00 +11°C° 0.4 mm 8 mps 739 mmHg 91%
    13:00 +10°C° 0.4 mm 8 mps 739 mmHg 90%
    14:00 +10°C° 0.3 mm 8 mps 739 mmHg 90%
    15:00 +9°C° 0.3 mm 8 mps 739 mmHg 90%
    16:00 +9°C° 0.3 mm 8 mps 740 mmHg 89%
    17:00 +9°C° 0.1 mm 7 mps 740 mmHg 89%
    18:00 +9°C° 0.1 mm 6 mps 740 mmHg 89%
    19:00 +8°C° 0.1 mm 6 mps 740 mmHg 89%
    20:00 +8°C° 0 mm 6 mps 741 mmHg 88%
    21:00 +8°C° 0 mm 5 mps 741 mmHg 88%
    22:00 +8°C° 0 mm 5 mps 741 mmHg 88%
    23:00 +8°C° 0 mm 5 mps 741 mmHg 89%

    24 May, Friday

    Time Temperature Precipitation Wind Pressure Humidity
    00:00 +8°C° 0 mm 4 mps 741 mmHg 90%
    01:00 +8°C° 0 mm 4 mps 741 mmHg 91%
    02:00 +7°C° 0 mm 4 mps 741 mmHg 92%
    03:00 +8°C° 0 mm 3 mps 741 mmHg 93%
    04:00 +8°C° 0 mm 3 mps 742 mmHg 94%
    05:00 +9°C° 0 mm 3 mps 742 mmHg 89%
    06:00 +10°C° 0 mm 4 mps 742 mmHg 85%
    07:00 +11°C° 0 mm 4 mps 742 mmHg 80%
    08:00 +12°C° 0 mm 4 mps 741 mmHg 75%
    09:00 +13°C° 0 mm 4 mps 741 mmHg 70%
    10:00 +15°C° 0 mm 4 mps 741 mmHg 66%
    11:00 +17°C° 0 mm 4 mps 741 mmHg 63%
    12:00 +17°C° 0 mm 4 mps 740 mmHg 60%
    13:00 +18°C° 0 mm 3 mps 740 mmHg 57%
    14:00 +18°C° 0 mm 3 mps 740 mmHg 59%
    15:00 +18°C° 0 mm 3 mps 739 mmHg 61%
    16:00 +18°C° 0 mm 3 mps 739 mmHg 62%
    17:00 +17°C° 0 mm 2 mps 739 mmHg 67%
    18:00 +16°C° 0 mm 2 mps 739 mmHg 72%
    19:00 +14°C° 0 mm 1 mps 738 mmHg 77%
    20:00 +13°C° 0 mm 1 mps 739 mmHg 79%
    21:00 +12°C° 0 mm 1 mps 739 mmHg 81%
    22:00 +11°C° 0 mm 1 mps 739 mmHg 84%
    23:00 +11°C° 0 mm 1 mps 739 mmHg 85%
    Show more